sat.trackr.live / text

‹ back to catalog

STARLINK-36571

NORAD 67579 · 2026-016U

PAYLOAD ACTIVE UNKNOWN

§ Identity

Operator
Country
US
Launch date
2026-01-25
Launch site
AFWTR
Launch vehicle
Mass (kg)
RCS (m²)

Purposes: comms

External: N2YO · Heavens-Above · Gunter

§ Orbital elements

Epoch: 2026-09-19T10:06:18.667296Z

Period
93.91 min
Inclination
97.2860°
Eccentricity
0.0000925
Mean motion
15.33444370 rev/d
Perigee alt
464.9 km
Apogee alt
466.2 km
Semi-major
6,843.7 km
B*
3.3978e-4
RAAN
321.0766°
Arg perigee
115.0031°
Mean anomaly
245.1308°
Rev number
3,655

§ Raw data

STARLINK-365711 67579U 26016U   26262.42104939  .00010910  00000+0  33978-3 0  99922 67579  97.2860 321.0766 0000925 115.0031 245.1308 15.33444370 36556

JSON: /api/v1/satellites/67579 · /tle

For live sub-satellite position, see the globe view (requires WebGL).

§ Visibility from observer

Set your observer location to see the next 7 days of passes ≥ 10°. The values pass through the URL so the page stays shareable.

No JS? Fill the form by hand. The geolocation button needs JavaScript.